Springfield Branson National Airport
KSGF : now visible

Airfield :











YOU CAN JOIN US ON...

 
LOGIN :

Register | Disclaimer

   EN    FR    IT 

 









Legend :    VFR   Marginal VFR   IFR   Intensive IFR   Very Intensive IFR
Visi :
Ceiling :
>= 8 km
>= 3000ft
5 to 8 km
1000 to 3000 ft
1500m to 5 km
500 to 1000 ft
800 to 1500m
200 to 500 ft
< 800m
< 200 ft
Symbols :   Thunderstorms  Fog  Heavy snow  Heavy precipitations  Wind > 20 kt






- Airport Elevation : 1268 ft
- IATA code : SGF


KSGF - Springfield Branson National

CURRENT METAR :
  • 261052Z 17010KT 10SM CLR 14/08 A3006 RMK AO2 SLP172 T01390078

EXPIRED METARs :
  • 260952Z 15010KT 10SM CLR 14/08 A3005 RMK AO2 SLP167 T01390083
  • 260852Z 15010KT 10SM CLR 13/08 A3005 RMK AO2 SLP168 T01330083 58010

TAF KSGF
Valid from the 26 at 12:00 until the 27 at 12:00 UTC


261120Z 2612/2712 17010KT P6SM SKC
FM261700 19012G22KT P6SM SKC
FM270600 20010KT P6SM SKC WS020/23040KT
KZKC FIR / North America



MET'MAP, your aeronautical weather chart ! - Copyright ORBIFLY December 2007 - Disclaimer

ORBIFLY MET'MAP TEAM :

Programming & Development : Alexandra Zaïnal
Concept & original design : Baudouin d'Aumeries
Assistance for programming : Marc-Olivier Méhu
Technical & hardware support : Manuel Goepfert

Contact : metmap@orbifly.com




SOURCES & CREDITS :

   NOAA       Earth
Advisory